Time,TemperatureF,DewpointF,PressureIn,WindDirection,WindDirectionDegrees,WindSpeedMPH,WindSpeedGustMPH,Humidity,HourlyPrecipIn,Conditions,Clouds,dailyrainin,SoftwareType,DateUTC
2013-01-31 00:00:00,54.4,53.6,29.20,SSE,157,1.0,6.0,97,0.25,,,-99.99,WeatherLink 5.4,2013-01-31 05:00:00,
2013-01-31 00:15:00,54.4,53.6,29.20,SSE,157,0.0,2.0,97,0.25,,,-99.99,WeatherLink 5.4,2013-01-31 05:15:00,
2013-01-31 00:20:00,54.4,53.6,29.20,SSE,157,0.0,2.0,97,0.25,,,-99.99,WeatherLink 5.4,2013-01-31 05:20:00,
2013-01-31 00:30:00,54.4,53.6,29.20,SSE,157,0.0,1.0,97,0.32,,,-99.99,WeatherLink 5.4,2013-01-31 05:30:00,
2013-01-31 00:45:00,54.4,53.6,29.20,SSE,157,1.0,6.0,97,0.28,,,-99.99,WeatherLink 5.4,2013-01-31 05:45:00,
2013-01-31 01:00:00,53.9,53.1,29.21,West,270,6.0,13.0,97,0.22,,,-99.99,WeatherLink 5.4,2013-01-31 06:00:00,
2013-01-31 01:15:00,53.5,52.7,29.19,WSW,247,2.0,8.0,97,0.19,,,-99.99,WeatherLink 5.4,2013-01-31 06:15:00,
2013-01-31 01:30:00,53.2,52.4,29.19,WSW,247,0.0,2.0,97,0.10,,,-99.99,WeatherLink 5.4,2013-01-31 06:30:00,
2013-01-31 01:35:00,53.2,52.4,29.19,WSW,247,0.0,2.0,97,0.10,,,-99.99,WeatherLink 5.4,2013-01-31 06:35:00,
2013-01-31 01:45:00,53.1,52.3,29.19,SW,225,1.0,4.0,97,0.08,,,-99.99,WeatherLink 5.4,2013-01-31 06:45:00,
2013-01-31 01:50:00,53.1,52.3,29.19,SW,225,1.0,4.0,97,0.08,,,-99.99,WeatherLink 5.4,2013-01-31 06:50:00,
2013-01-31 02:00:00,52.9,52.1,29.21,WSW,247,1.0,6.0,97,0.09,,,-99.99,WeatherLink 5.4,2013-01-31 07:00:00,
2013-01-31 02:15:00,52.8,52.0,29.18,SW,225,0.0,2.0,97,0.09,,,-99.99,WeatherLink 5.4,2013-01-31 07:15:00,
2013-01-31 02:20:00,52.8,52.0,29.18,SW,225,0.0,2.0,97,0.09,,,-99.99,WeatherLink 5.4,2013-01-31 07:20:00,
2013-01-31 02:30:00,52.5,51.7,29.19,WSW,247,1.0,4.0,97,0.10,,,-99.99,WeatherLink 5.4,2013-01-31 07:30:00,
2013-01-31 02:45:00,52.2,51.4,29.18,WSW,247,3.0,14.0,97,0.10,,,-99.99,WeatherLink 5.4,2013-01-31 07:45:00,
2013-01-31 03:00:00,51.6,50.8,29.19,West,270,8.0,19.0,97,0.08,,,-99.99,WeatherLink 5.4,2013-01-31 08:00:00,
2013-01-31 03:05:00,51.6,50.8,29.19,West,270,8.0,19.0,97,0.08,,,-99.99,WeatherLink 5.4,2013-01-31 08:05:00,
2013-01-31 03:15:00,49.8,48.1,29.19,WSW,247,9.0,19.0,94,0.06,,,-99.99,WeatherLink 5.4,2013-01-31 08:15:00,
2013-01-31 03:20:00,49.8,48.1,29.19,WSW,247,9.0,19.0,94,0.06,,,-99.99,WeatherLink 5.4,2013-01-31 08:20:00,
2013-01-31 03:30:00,49.4,44.5,29.22,WSW,247,12.0,29.0,83,0.05,,,-99.99,WeatherLink 5.4,2013-01-31 08:30:00,
2013-01-31 03:45:00,47.6,41.4,29.24,West,270,13.0,28.0,79,0.02,,,-99.99,WeatherLink 5.4,2013-01-31 08:45:00,
2013-01-31 04:00:00,45.4,36.9,29.27,West,270,11.0,26.0,72,0.01,,,-99.99,WeatherLink 5.4,2013-01-31 09:00:00,
2013-01-31 04:05:00,45.4,36.9,29.27,West,270,11.0,26.0,72,0.01,,,-99.99,WeatherLink 5.4,2013-01-31 09:05:00,
2013-01-31 04:15:00,44.9,35.0,29.28,WSW,247,10.0,24.0,68,0.01,,,-99.99,WeatherLink 5.4,2013-01-31 09:15:00,
2013-01-31 04:30:00,44.6,35.1,29.28,West,270,7.0,19.0,69,0.00,,,-99.99,WeatherLink 5.4,2013-01-31 09:30:00,
2013-01-31 04:45:00,44.2,33.9,29.30,WSW,247,8.0,21.0,67,0.00,,,-99.99,WeatherLink 5.4,2013-01-31 09:45:00,
2013-01-31 04:50:00,44.2,33.9,29.30,WSW,247,8.0,21.0,67,0.00,,,-99.99,WeatherLink 5.4,2013-01-31 09:50:00,
2013-01-31 05:00:00,43.9,32.1,29.32,West,270,10.0,24.0,63,0.00,,,-99.99,WeatherLink 5.4,2013-01-31 10:00:00,
2013-01-31 05:15:00,43.3,31.5,29.34,WSW,247,10.0,22.0,63,0.00,,,-99.99,WeatherLink 5.4,2013-01-31 10:15:00,
2013-01-31 05:30:00,42.6,30.5,29.37,WSW,247,11.0,22.0,62,0.00,,,-99.99,WeatherLink 5.4,2013-01-31 10:30:00,
2013-01-31 05:45:00,41.8,28.1,29.40,WSW,247,13.0,35.0,58,0.00,,,-99.99,WeatherLink 5.4,2013-01-31 10:45:00,
2013-01-31 05:50:00,41.8,28.1,29.40,WSW,247,13.0,35.0,58,0.00,,,-99.99,WeatherLink 5.4,2013-01-31 10:50:00,
2013-01-31 06:00:00,40.5,26.4,29.42,WSW,247,12.0,26.0,57,0.00,,,-99.99,WeatherLink 5.4,2013-01-31 11:00:00,
2013-01-31 06:15:00,39.9,27.1,29.43,WSW,247,10.0,21.0,60,0.00,,,-99.99,WeatherLink 5.4,2013-01-31 11:15:00,
2013-01-31 06:20:00,39.9,27.1,29.43,WSW,247,10.0,21.0,60,0.00,,,-99.99,WeatherLink 5.4,2013-01-31 11:20:00,
2013-01-31 06:30:00,39.5,26.8,29.46,West,270,11.0,26.0,60,0.00,,,-99.99,WeatherLink 5.4,2013-01-31 11:30:00,
2013-01-31 06:45:00,39.1,24.7,29.47,West,270,13.0,27.0,56,0.00,,,-99.99,WeatherLink 5.4,2013-01-31 11:45:00,
2013-01-31 06:50:00,39.1,24.7,29.47,West,270,13.0,27.0,56,0.00,,,-99.99,WeatherLink 5.4,2013-01-31 11:50:00,
2013-01-31 07:00:00,38.8,23.1,29.48,West,270,14.0,28.0,53,0.00,,,-99.99,WeatherLink 5.4,2013-01-31 12:00:00,
2013-01-31 07:15:00,38.5,21.5,29.48,West,270,13.0,27.0,50,0.00,,,-99.99,WeatherLink 5.4,2013-01-31 12:15:00,
2013-01-31 07:30:00,38.3,21.7,29.50,WSW,247,12.0,24.0,51,0.00,,,-99.99,WeatherLink 5.4,2013-01-31 12:30:00,
2013-01-31 07:45:00,38.0,22.4,29.51,WSW,247,12.0,25.0,53,0.00,,,-99.99,WeatherLink 5.4,2013-01-31 12:45:00,
2013-01-31 08:00:00,37.6,21.5,29.52,West,270,13.0,26.0,52,0.00,,,-99.99,WeatherLink 5.4,2013-01-31 13:00:00,
2013-01-31 08:15:00,37.3,21.7,29.53,WSW,247,11.0,22.0,53,0.00,,,-99.99,WeatherLink 5.4,2013-01-31 13:15:00,
2013-01-31 08:20:00,37.3,21.7,29.53,WSW,247,11.0,22.0,53,0.00,,,-99.99,WeatherLink 5.4,2013-01-31 13:20:00,
2013-01-31 08:30:00,37.0,21.4,29.54,WSW,247,12.0,25.0,53,0.00,,,-99.99,WeatherLink 5.4,2013-01-31 13:30:00,
2013-01-31 08:45:00,36.6,21.9,29.55,WSW,247,13.0,27.0,55,0.00,,,-99.99,WeatherLink 5.4,2013-01-31 13:45:00,
2013-01-31 08:50:00,36.6,21.9,29.55,WSW,247,13.0,27.0,55,0.00,,,-99.99,WeatherLink 5.4,2013-01-31 13:50:00,
2013-01-31 09:00:00,36.6,21.9,29.56,West,270,10.0,20.0,55,0.00,,,-99.99,WeatherLink 5.4,2013-01-31 14:00:00,
2013-01-31 09:15:00,36.9,21.3,29.57,WSW,247,9.0,21.0,53,0.00,,,-99.99,WeatherLink 5.4,2013-01-31 14:15:00,
2013-01-31 09:30:00,37.3,21.3,29.59,WSW,247,11.0,28.0,52,0.00,,,-99.99,WeatherLink 5.4,2013-01-31 14:30:00,
2013-01-31 09:45:00,37.6,21.1,29.59,West,270,11.0,29.0,51,0.00,,,-99.99,WeatherLink 5.4,2013-01-31 14:45:00,
2013-01-31 09:50:00,37.6,21.1,29.59,West,270,11.0,29.0,51,0.00,,,-99.99,WeatherLink 5.4,2013-01-31 14:50:00,
2013-01-31 10:00:00,37.6,18.7,29.59,West,270,12.0,26.0,46,0.00,,,-99.99,WeatherLink 5.4,2013-01-31 15:00:00,
2013-01-31 10:15:00,38.5,18.4,29.59,West,270,16.0,31.0,44,0.00,,,-99.99,WeatherLink 5.4,2013-01-31 15:15:00,
2013-01-31 10:20:00,38.5,18.4,29.59,West,270,16.0,31.0,44,0.00,,,-99.99,WeatherLink 5.4,2013-01-31 15:20:00,
2013-01-31 10:30:00,38.2,18.7,29.61,WSW,247,17.0,32.0,45,0.00,,,-99.99,WeatherLink 5.4,2013-01-31 15:30:00,
2013-01-31 10:45:00,38.0,17.5,29.62,WSW,247,16.0,27.0,43,0.00,,,-99.99,WeatherLink 5.4,2013-01-31 15:45:00,
2013-01-31 10:50:00,38.0,17.5,29.62,WSW,247,16.0,27.0,43,0.00,,,-99.99,WeatherLink 5.4,2013-01-31 15:50:00,
2013-01-31 11:00:00,38.3,16.6,29.63,West,270,16.0,29.0,41,0.00,,,-99.99,WeatherLink 5.4,2013-01-31 16:00:00,
2013-01-31 11:15:00,37.8,16.2,29.64,West,270,17.0,30.0,41,0.00,,,-99.99,WeatherLink 5.4,2013-01-31 16:15:00,
2013-01-31 11:30:00,38.2,16.0,29.64,WSW,247,15.0,27.0,40,0.00,,,-99.99,WeatherLink 5.4,2013-01-31 16:30:00,
2013-01-31 11:35:00,38.2,16.0,29.64,WSW,247,15.0,27.0,40,0.00,,,-99.99,WeatherLink 5.4,2013-01-31 16:35:00,
2013-01-31 11:45:00,38.8,17.6,29.64,WSW,247,16.0,31.0,42,0.00,,,-99.99,WeatherLink 5.4,2013-01-31 16:45:00,
2013-01-31 12:00:00,37.6,15.4,29.65,West,270,19.0,34.0,40,0.00,,,-99.99,WeatherLink 5.4,2013-01-31 17:00:00,
2013-01-31 12:15:00,37.0,14.9,29.66,West,270,15.0,34.0,40,0.00,,,-99.99,WeatherLink 5.4,2013-01-31 17:15:00,
2013-01-31 12:30:00,36.3,15.4,29.67,West,270,15.0,28.0,42,0.00,,,-99.99,WeatherLink 5.4,2013-01-31 17:30:00,
2013-01-31 12:45:00,36.0,14.5,29.67,WSW,247,15.0,28.0,41,0.00,,,-99.99,WeatherLink 5.4,2013-01-31 17:45:00,
2013-01-31 12:50:00,36.0,14.5,29.67,WSW,247,15.0,28.0,41,0.00,,,-99.99,WeatherLink 5.4,2013-01-31 17:50:00,
2013-01-31 13:00:00,35.9,16.6,29.68,WSW,247,11.0,24.0,45,0.00,,,-99.99,WeatherLink 5.4,2013-01-31 18:00:00,
2013-01-31 13:15:00,35.9,16.6,29.68,WSW,247,15.0,29.0,45,0.00,,,-99.99,WeatherLink 5.4,2013-01-31 18:15:00,
2013-01-31 13:30:00,35.8,19.0,29.68,West,270,15.0,31.0,50,0.00,,,-99.99,WeatherLink 5.4,2013-01-31 18:30:00,
2013-01-31 13:45:00,34.7,19.3,29.69,West,270,14.0,31.0,53,0.00,,,-99.99,WeatherLink 5.4,2013-01-31 18:45:00,
2013-01-31 13:50:00,34.7,19.3,29.69,West,270,14.0,31.0,53,0.00,,,-99.99,WeatherLink 5.4,2013-01-31 18:50:00,
2013-01-31 14:00:00,34.3,19.4,29.70,West,270,12.0,27.0,54,0.00,,,-99.99,WeatherLink 5.4,2013-01-31 19:00:00,
2013-01-31 14:15:00,33.8,17.6,29.71,West,270,11.0,22.0,51,0.00,,,-99.99,WeatherLink 5.4,2013-01-31 19:15:00,
2013-01-31 14:30:00,33.8,16.6,29.70,West,270,12.0,22.0,49,0.00,,,-99.99,WeatherLink 5.4,2013-01-31 19:30:00,
2013-01-31 14:45:00,34.1,15.5,29.71,West,270,11.0,21.0,46,0.00,,,-99.99,WeatherLink 5.4,2013-01-31 19:45:00,
2013-01-31 15:00:00,33.5,16.8,29.73,WSW,247,12.0,28.0,50,0.00,,,-99.99,WeatherLink 5.4,2013-01-31 20:00:00,
2013-01-31 15:05:00,33.5,16.8,29.73,WSW,247,12.0,28.0,50,0.00,,,-99.99,WeatherLink 5.4,2013-01-31 20:05:00,
2013-01-31 15:15:00,32.7,19.9,29.74,WSW,247,9.0,20.0,59,0.00,,,-99.99,WeatherLink 5.4,2013-01-31 20:15:00,
2013-01-31 15:30:00,32.4,18.8,29.75,WSW,247,8.0,16.0,57,0.00,,,-99.99,WeatherLink 5.4,2013-01-31 20:30:00,
2013-01-31 15:45:00,32.9,18.1,29.75,WSW,247,7.0,16.0,54,0.00,,,-99.99,WeatherLink 5.4,2013-01-31 20:45:00,
2013-01-31 16:00:00,33.2,15.6,29.75,WSW,247,9.0,26.0,48,0.00,,,-99.99,WeatherLink 5.4,2013-01-31 21:00:00,
2013-01-31 16:05:00,33.2,15.6,29.75,WSW,247,9.0,26.0,48,0.00,,,-99.99,WeatherLink 5.4,2013-01-31 21:05:00,
2013-01-31 16:15:00,33.5,16.4,29.76,WSW,247,10.0,18.0,49,0.00,,,-99.99,WeatherLink 5.4,2013-01-31 21:15:00,
2013-01-31 16:30:00,33.2,16.5,29.77,West,270,8.0,20.0,50,0.00,,,-99.99,WeatherLink 5.4,2013-01-31 21:30:00,
2013-01-31 16:45:00,32.7,17.4,29.79,WSW,247,13.0,25.0,53,0.00,,,-99.99,WeatherLink 5.4,2013-01-31 21:45:00,
2013-01-31 17:00:00,31.9,18.4,29.79,WSW,247,9.0,18.0,57,0.00,,,-99.99,WeatherLink 5.4,2013-01-31 22:00:00,
2013-01-31 17:15:00,31.0,17.5,29.80,WSW,247,9.0,18.0,57,0.00,,,-99.99,WeatherLink 5.4,2013-01-31 22:15:00,
2013-01-31 17:30:00,30.9,16.6,29.81,WSW,247,10.0,24.0,55,0.00,,,-99.99,WeatherLink 5.4,2013-01-31 22:30:00,
2013-01-31 17:45:00,30.7,14.2,29.84,WSW,247,11.0,29.0,50,0.00,,,-99.99,WeatherLink 5.4,2013-01-31 22:45:00,
2013-01-31 17:50:00,30.7,14.2,29.84,WSW,247,11.0,29.0,50,0.00,,,-99.99,WeatherLink 5.4,2013-01-31 22:50:00,
2013-01-31 18:00:00,29.7,13.3,29.85,West,270,13.0,28.0,50,0.00,,,-99.99,WeatherLink 5.4,2013-01-31 23:00:00,
2013-01-31 18:15:00,29.3,13.8,29.87,West,270,11.0,30.0,52,0.00,,,-99.99,WeatherLink 5.4,2013-01-31 23:15:00,
2013-01-31 18:20:00,29.3,13.8,29.87,West,270,11.0,30.0,52,0.00,,,-99.99,WeatherLink 5.4,2013-01-31 23:20:00,
2013-01-31 18:30:00,28.7,13.3,29.88,West,270,8.0,18.0,52,0.00,,,-99.99,WeatherLink 5.4,2013-01-31 23:30:00,
2013-01-31 18:35:00,28.7,13.3,29.88,West,270,8.0,18.0,52,0.00,,,-99.99,WeatherLink 5.4,2013-01-31 23:35:00,
2013-01-31 18:45:00,28.5,10.8,29.89,WSW,247,8.0,20.0,47,0.00,,,-99.99,WeatherLink 5.4,2013-01-31 23:45:00,
2013-01-31 19:00:00,28.5,8.3,29.89,WSW,247,7.0,18.0,42,0.00,,,-99.99,WeatherLink 5.4,2013-02-01 00:00:00,
2013-01-31 19:15:00,28.7,7.9,29.90,West,270,8.0,21.0,41,0.00,,,-99.99,WeatherLink 5.4,2013-02-01 00:15:00,
2013-01-31 19:30:00,28.5,7.2,29.90,West,270,8.0,19.0,40,0.00,,,-99.99,WeatherLink 5.4,2013-02-01 00:30:00,
2013-01-31 19:45:00,28.4,7.1,29.90,WSW,247,9.0,24.0,40,0.00,,,-99.99,WeatherLink 5.4,2013-02-01 00:45:00,
2013-01-31 20:00:00,28.1,8.4,29.90,WSW,247,4.0,14.0,43,0.00,,,-99.99,WeatherLink 5.4,2013-02-01 01:00:00,
2013-01-31 20:15:00,27.8,8.7,29.89,West,270,3.0,7.0,44,0.00,,,-99.99,WeatherLink 5.4,2013-02-01 01:15:00,
2013-01-31 20:30:00,27.8,8.2,29.90,West,270,5.0,16.0,43,0.00,,,-99.99,WeatherLink 5.4,2013-02-01 01:30:00,
2013-01-31 20:45:00,27.8,8.2,29.89,WSW,247,4.0,13.0,43,0.00,,,-99.99,WeatherLink 5.4,2013-02-01 01:45:00,
2013-01-31 20:50:00,27.8,8.2,29.89,WSW,247,4.0,13.0,43,0.00,,,-99.99,WeatherLink 5.4,2013-02-01 01:50:00,
2013-01-31 21:00:00,27.5,7.9,29.88,West,270,1.0,6.0,43,0.00,,,-99.99,WeatherLink 5.4,2013-02-01 02:00:00,
2013-01-31 21:15:00,27.0,9.4,29.89,West,270,0.0,2.0,47,0.00,,,-99.99,WeatherLink 5.4,2013-02-01 02:15:00,
2013-01-31 21:20:00,27.0,9.4,29.89,West,270,0.0,2.0,47,0.00,,,-99.99,WeatherLink 5.4,2013-02-01 02:20:00,
2013-01-31 21:30:00,26.9,8.8,29.89,WSW,247,1.0,6.0,46,0.00,,,-99.99,WeatherLink 5.4,2013-02-01 02:30:00,
2013-01-31 21:45:00,27.0,9.4,29.89,WSW,247,2.0,13.0,47,0.00,,,-99.99,WeatherLink 5.4,2013-02-01 02:45:00,
2013-01-31 21:50:00,27.0,9.4,29.89,WSW,247,2.0,13.0,47,0.00,,,-99.99,WeatherLink 5.4,2013-02-01 02:50:00,
2013-01-31 22:00:00,27.2,9.1,29.89,WSW,247,3.0,11.0,46,0.00,,,-99.99,WeatherLink 5.4,2013-02-01 03:00:00,
2013-01-31 22:15:00,27.5,9.9,29.90,WSW,247,4.0,11.0,47,0.00,,,-99.99,WeatherLink 5.4,2013-02-01 03:15:00,
2013-01-31 22:20:00,27.5,9.9,29.90,WSW,247,4.0,11.0,47,0.00,,,-99.99,WeatherLink 5.4,2013-02-01 03:20:00,
2013-01-31 22:30:00,27.5,9.4,29.90,WSW,247,3.0,9.0,46,0.00,,,-99.99,WeatherLink 5.4,2013-02-01 03:30:00,
2013-01-31 22:45:00,27.6,10.4,29.90,WSW,247,4.0,10.0,48,0.00,,,-99.99,WeatherLink 5.4,2013-02-01 03:45:00,
2013-01-31 22:50:00,27.6,10.4,29.90,WSW,247,4.0,10.0,48,0.00,,,-99.99,WeatherLink 5.4,2013-02-01 03:50:00,
2013-01-31 23:00:00,27.9,10.7,29.90,WSW,247,6.0,13.0,48,0.00,,,-99.99,WeatherLink 5.4,2013-02-01 04:00:00,
2013-01-31 23:15:00,27.8,11.1,29.89,WSW,247,4.0,10.0,49,0.00,,,-99.99,WeatherLink 5.4,2013-02-01 04:15:00,
2013-01-31 23:30:00,27.8,11.5,29.89,WSW,247,3.0,8.0,50,0.00,,,-99.99,WeatherLink 5.4,2013-02-01 04:30:00,
2013-01-31 23:45:00,27.5,11.3,29.89,WSW,247,2.0,7.0,50,0.00,,,-99.99,WeatherLink 5.4,2013-02-01 04:45:00,